Time,TemperatureF,DewpointF,PressureIn,WindDirection,WindDirectionDegrees,WindSpeedMPH,WindSpeedGustMPH,Humidity,HourlyPrecipIn,Conditions,Clouds,dailyrainin,SoftwareType,DateUTC
2013-02-08 00:04:00,27.7,1.0,29.91,WNW,296,0.0,4.0,31,0.00,,---,0.00,VWS V13.01,2013-02-08 05:04:00,
2013-02-08 00:10:00,27.7,1.0,29.91,NNW,344,0.0,6.3,31,0.00,,---,0.00,VWS V13.01,2013-02-08 05:10:00,
2013-02-08 00:14:00,27.9,1.2,29.88,NNW,345,0.0,3.1,31,0.00,,---,0.00,VWS V13.01,2013-02-08 05:14:00,
2013-02-08 00:19:00,28.0,1.3,29.88,NNW,344,2.2,3.6,31,0.00,,---,0.00,VWS V13.01,2013-02-08 05:19:00,
2013-02-08 00:24:00,27.9,1.2,29.88,NNW,345,2.2,3.1,31,0.00,,---,0.00,VWS V13.01,2013-02-08 05:24:00,
2013-02-08 00:29:00,27.9,1.2,29.88,NNW,332,0.0,3.1,31,0.00,,---,0.00,VWS V13.01,2013-02-08 05:29:00,
2013-02-08 00:34:00,27.9,1.2,29.88,NNW,332,0.0,4.0,31,0.00,,---,0.00,VWS V13.01,2013-02-08 05:34:00,
2013-02-08 00:39:00,27.9,1.2,29.88,NW,326,2.7,5.8,31,0.00,,---,0.00,VWS V13.01,2013-02-08 05:39:00,
2013-02-08 00:44:00,28.0,1.3,29.88,NNW,327,3.1,5.4,31,0.00,,---,0.00,VWS V13.01,2013-02-08 05:44:00,
2013-02-08 00:49:00,28.2,1.5,29.88,NW,323,4.0,6.3,31,0.00,,---,0.00,VWS V13.01,2013-02-08 05:49:00,
2013-02-08 00:54:00,28.2,1.5,29.88,NNW,332,4.5,5.8,31,0.00,,---,0.00,VWS V13.01,2013-02-08 05:54:00,
2013-02-08 00:59:00,28.4,1.6,29.88,NNW,333,2.7,6.3,31,0.00,,---,0.00,VWS V13.01,2013-02-08 05:59:00,
2013-02-08 01:04:00,28.4,2.3,29.88,NNW,331,2.7,5.4,32,0.00,,---,0.00,VWS V13.01,2013-02-08 06:04:00,
2013-02-08 01:09:00,28.4,1.6,29.88,NNW,333,3.6,5.8,31,0.00,,---,0.00,VWS V13.01,2013-02-08 06:09:00,
2013-02-08 01:14:00,28.4,1.6,29.85,NNW,333,4.9,6.7,31,0.00,,---,0.00,VWS V13.01,2013-02-08 06:14:00,
2013-02-08 01:19:00,28.2,1.5,29.85,NNW,329,5.4,7.6,31,0.00,,---,0.00,VWS V13.01,2013-02-08 06:19:00,
2013-02-08 01:24:00,28.2,1.5,29.85,NNW,336,3.1,8.3,31,0.00,,---,0.00,VWS V13.01,2013-02-08 06:24:00,
2013-02-08 01:29:00,28.4,1.6,29.85,NNW,340,3.6,5.8,31,0.00,,---,0.00,VWS V13.01,2013-02-08 06:29:00,
2013-02-08 01:34:00,28.2,1.5,29.85,NW,310,6.7,10.5,31,0.00,,---,0.00,VWS V13.01,2013-02-08 06:34:00,
2013-02-08 01:39:00,28.2,1.5,29.85,NNW,334,5.4,8.3,31,0.00,,---,0.00,VWS V13.01,2013-02-08 06:39:00,
2013-02-08 01:44:00,28.0,1.3,29.85,NW,304,6.7,6.7,31,0.00,,---,0.00,VWS V13.01,2013-02-08 06:44:00,
2013-02-08 01:49:00,28.0,2.0,29.85,NW,312,7.2,11.0,32,0.00,,---,0.00,VWS V13.01,2013-02-08 06:49:00,
2013-02-08 01:54:00,28.0,2.0,29.85,WNW,302,2.2,8.1,32,0.00,,---,0.00,VWS V13.01,2013-02-08 06:54:00,
2013-02-08 02:04:00,28.0,2.0,29.85,NNW,338,4.0,11.0,32,0.00,,---,0.00,VWS V13.01,2013-02-08 07:04:00,
2013-02-08 02:09:00,28.0,2.0,29.85,NW,317,4.0,8.7,32,0.00,,---,0.00,VWS V13.01,2013-02-08 07:09:00,
2013-02-08 02:14:00,28.0,2.0,29.85,NNW,341,6.3,6.7,32,0.00,,---,0.00,VWS V13.01,2013-02-08 07:14:00,
2013-02-08 02:19:00,28.0,1.3,29.85,NW,320,3.1,10.1,31,0.00,,---,0.00,VWS V13.01,2013-02-08 07:19:00,
2013-02-08 02:24:00,28.0,1.3,29.85,NNW,334,5.8,8.3,31,0.00,,---,0.00,VWS V13.01,2013-02-08 07:24:00,
2013-02-08 02:30:00,28.0,1.3,29.85,NW,320,2.7,8.7,31,0.00,,---,0.00,VWS V13.01,2013-02-08 07:30:00,
2013-02-08 02:34:00,27.9,1.2,29.85,NW,316,4.0,8.3,31,0.00,,---,0.00,VWS V13.01,2013-02-08 07:34:00,
2013-02-08 02:39:00,28.0,1.3,29.85,NW,315,4.0,4.0,31,0.00,,---,0.00,VWS V13.01,2013-02-08 07:39:00,
2013-02-08 02:44:00,28.0,1.3,29.83,NW,320,3.6,6.3,31,0.00,,---,0.00,VWS V13.01,2013-02-08 07:44:00,
2013-02-08 02:49:00,27.9,1.2,29.83,NW,314,3.6,8.7,31,0.00,,---,0.00,VWS V13.01,2013-02-08 07:49:00,
2013-02-08 02:55:00,27.9,1.2,29.83,NW,304,4.9,4.9,31,0.00,,---,0.00,VWS V13.01,2013-02-08 07:55:00,
2013-02-08 02:59:00,28.0,1.3,29.83,NW,321,2.7,4.9,31,0.00,,---,0.00,VWS V13.01,2013-02-08 07:59:00,
2013-02-08 03:04:00,28.0,1.3,29.83,NNW,332,3.1,7.2,31,0.00,,---,0.00,VWS V13.01,2013-02-08 08:04:00,
2013-02-08 03:09:00,28.0,1.3,29.83,NNW,341,2.7,6.3,31,0.00,,---,0.00,VWS V13.01,2013-02-08 08:09:00,
2013-02-08 03:14:00,28.0,1.3,29.83,NW,318,5.8,8.3,31,0.00,,---,0.00,VWS V13.01,2013-02-08 08:14:00,
2013-02-08 03:19:00,27.9,1.2,29.83,NW,321,3.1,10.1,31,0.00,,---,0.00,VWS V13.01,2013-02-08 08:19:00,
2013-02-08 03:24:00,27.9,1.2,29.83,WNW,294,5.8,7.6,31,0.00,,---,0.00,VWS V13.01,2013-02-08 08:24:00,
2013-02-08 03:29:00,27.9,1.2,29.83,NW,324,3.6,13.2,31,0.00,,---,0.00,VWS V13.01,2013-02-08 08:29:00,
2013-02-08 03:39:00,28.0,1.3,29.83,NNW,329,2.2,8.3,31,0.00,,---,0.00,VWS V13.01,2013-02-08 08:39:00,
2013-02-08 03:44:00,28.0,1.3,29.80,NW,326,8.3,10.1,31,0.00,,---,0.00,VWS V13.01,2013-02-08 08:44:00,
2013-02-08 03:54:00,28.0,1.3,29.80,NW,325,4.0,10.1,31,0.00,,---,0.00,VWS V13.01,2013-02-08 08:54:00,
2013-02-08 03:59:00,27.9,1.8,29.77,NW,326,5.8,11.0,32,0.00,,---,0.00,VWS V13.01,2013-02-08 08:59:00,
2013-02-08 04:04:00,28.0,2.0,29.77,NNW,329,3.6,5.8,32,0.00,,---,0.00,VWS V13.01,2013-02-08 09:04:00,
2013-02-08 04:09:00,28.0,2.0,29.77,NW,308,0.0,8.1,32,0.00,,---,0.00,VWS V13.01,2013-02-08 09:09:00,
2013-02-08 04:19:00,28.0,2.0,29.80,NW,318,5.4,8.3,32,0.00,,---,0.00,VWS V13.01,2013-02-08 09:19:00,
2013-02-08 04:30:00,28.0,2.7,29.77,NNW,328,4.9,8.1,33,0.00,,---,0.00,VWS V13.01,2013-02-08 09:30:00,
2013-02-08 04:39:00,28.0,2.7,29.77,NNW,327,3.1,7.6,33,0.00,,---,0.00,VWS V13.01,2013-02-08 09:39:00,
2013-02-08 04:44:00,28.0,3.3,29.77,NNW,327,4.5,6.3,34,0.00,,---,0.00,VWS V13.01,2013-02-08 09:44:00,
2013-02-08 04:49:00,28.0,3.9,29.77,NW,313,5.4,8.1,35,0.00,,---,0.00,VWS V13.01,2013-02-08 09:49:00,
2013-02-08 04:54:00,27.9,3.8,29.77,WNW,300,4.9,6.3,35,0.00,,---,0.00,VWS V13.01,2013-02-08 09:54:00,
2013-02-08 04:59:00,28.0,4.5,29.77,NW,323,6.3,6.3,36,0.00,,---,0.00,VWS V13.01,2013-02-08 09:59:00,
2013-02-08 05:04:00,28.2,4.7,29.77,NW,315,4.0,8.1,36,0.00,,---,0.00,VWS V13.01,2013-02-08 10:04:00,
2013-02-08 05:09:00,28.0,5.1,29.77,NW,306,4.9,5.8,37,0.00,,---,0.00,VWS V13.01,2013-02-08 10:09:00,
2013-02-08 05:14:00,28.2,5.9,29.77,NW,310,0.0,4.9,38,0.00,,---,0.00,VWS V13.01,2013-02-08 10:14:00,
2013-02-08 05:19:00,28.4,5.5,29.77,WNW,302,6.7,6.7,37,0.00,,---,0.00,VWS V13.01,2013-02-08 10:19:00,
2013-02-08 05:24:00,28.0,5.7,29.77,NW,322,4.9,8.7,38,0.00,,---,0.00,VWS V13.01,2013-02-08 10:24:00,
2013-02-08 05:29:00,28.0,5.7,29.77,NW,318,4.0,6.7,38,0.00,,---,0.00,VWS V13.01,2013-02-08 10:29:00,
2013-02-08 05:34:00,28.2,5.9,29.77,NW,320,2.7,5.8,38,0.00,,---,0.00,VWS V13.01,2013-02-08 10:34:00,
2013-02-08 05:39:00,28.2,5.9,29.77,NW,314,4.0,7.6,38,0.00,,---,0.00,VWS V13.01,2013-02-08 10:39:00,
2013-02-08 05:44:00,28.2,5.9,29.77,West,280,2.7,6.3,38,0.00,,---,0.00,VWS V13.01,2013-02-08 10:44:00,
2013-02-08 05:49:00,28.2,5.9,29.77,WNW,282,3.1,5.8,38,0.00,,---,0.00,VWS V13.01,2013-02-08 10:49:00,
2013-02-08 05:54:00,28.2,5.9,29.77,NW,304,6.3,11.0,38,0.00,,---,0.00,VWS V13.01,2013-02-08 10:54:00,
2013-02-08 06:04:00,28.2,6.4,29.74,NW,315,8.1,8.1,39,0.00,,---,0.00,VWS V13.01,2013-02-08 11:04:00,
2013-02-08 06:09:00,28.2,7.0,29.74,West,280,3.1,8.1,40,0.00,,---,0.00,VWS V13.01,2013-02-08 11:09:00,
2013-02-08 06:14:00,28.2,7.6,29.74,West,270,6.3,8.7,41,0.00,,---,0.00,VWS V13.01,2013-02-08 11:14:00,
2013-02-08 06:19:00,28.6,7.9,29.74,NW,325,2.7,6.3,41,0.00,,---,0.00,VWS V13.01,2013-02-08 11:19:00,
2013-02-08 06:24:00,28.4,7.7,29.74,WNW,290,3.6,7.6,41,0.00,,---,0.00,VWS V13.01,2013-02-08 11:24:00,
2013-02-08 06:29:00,28.6,7.9,29.74,NW,305,4.0,5.4,41,0.00,,---,0.00,VWS V13.01,2013-02-08 11:29:00,
2013-02-08 06:34:00,28.6,7.9,29.74,NNW,335,4.9,5.8,41,0.00,,---,0.00,VWS V13.01,2013-02-08 11:34:00,
2013-02-08 06:39:00,28.8,8.0,29.74,NNW,345,4.0,8.7,41,0.00,,---,0.00,VWS V13.01,2013-02-08 11:39:00,
2013-02-08 06:44:00,28.8,8.0,29.74,NNW,334,2.2,6.7,41,0.00,,---,0.00,VWS V13.01,2013-02-08 11:44:00,
2013-02-08 06:54:00,28.8,8.6,29.74,WNW,285,6.3,7.6,42,0.00,,---,0.00,VWS V13.01,2013-02-08 11:54:00,
2013-02-08 06:59:00,28.8,8.6,29.74,NW,311,4.0,12.8,42,0.00,,---,0.00,VWS V13.01,2013-02-08 11:59:00,
2013-02-08 07:04:00,28.9,9.3,29.74,NW,317,0.0,10.5,43,0.00,,---,0.00,VWS V13.01,2013-02-08 12:04:00,
2013-02-08 07:09:00,28.9,9.8,29.74,WNW,298,4.0,11.0,44,0.00,,---,0.00,VWS V13.01,2013-02-08 12:09:00,
2013-02-08 07:14:00,28.9,10.3,29.71,NW,314,8.1,10.5,45,0.00,,---,0.00,VWS V13.01,2013-02-08 12:14:00,
2013-02-08 07:19:00,29.1,10.9,29.71,NNW,328,2.2,8.1,46,0.00,,---,0.00,VWS V13.01,2013-02-08 12:19:00,
2013-02-08 07:24:00,29.1,11.4,29.71,NW,308,7.2,8.1,47,0.00,,---,0.00,VWS V13.01,2013-02-08 12:24:00,
2013-02-08 07:29:00,29.1,12.8,29.71,NW,307,4.5,8.3,50,0.00,,---,0.00,VWS V13.01,2013-02-08 12:29:00,
2013-02-08 07:34:00,29.1,12.4,29.71,WNW,301,2.7,6.3,49,0.00,,---,0.00,VWS V13.01,2013-02-08 12:34:00,
2013-02-08 07:39:00,29.1,12.8,29.71,NW,311,5.8,7.2,50,0.00,,---,0.00,VWS V13.01,2013-02-08 12:39:00,
2013-02-08 07:44:00,29.3,13.4,29.71,NW,314,0.0,5.8,51,0.00,,---,0.00,VWS V13.01,2013-02-08 12:44:00,
2013-02-08 07:49:00,29.3,13.0,29.71,WNW,291,5.8,8.1,50,0.00,,---,0.00,VWS V13.01,2013-02-08 12:49:00,
2013-02-08 07:54:00,29.3,13.9,29.71,NW,325,2.7,8.1,52,0.00,,---,0.00,VWS V13.01,2013-02-08 12:54:00,
2013-02-08 07:59:00,29.3,14.7,29.71,WNW,296,8.7,8.7,54,0.00,,---,0.00,VWS V13.01,2013-02-08 12:59:00,
2013-02-08 08:04:00,29.3,15.1,29.71,NW,313,4.0,8.7,55,0.00,,---,0.00,VWS V13.01,2013-02-08 13:04:00,
2013-02-08 08:09:00,29.1,16.2,29.71,NW,320,3.6,10.5,58,0.00,,---,0.00,VWS V13.01,2013-02-08 13:09:00,
2013-02-08 08:14:00,29.3,16.8,29.71,NW,325,2.7,7.6,59,0.00,,---,0.00,VWS V13.01,2013-02-08 13:14:00,
2013-02-08 08:19:00,29.3,16.8,29.71,NW,324,4.9,6.3,59,0.00,,---,0.00,VWS V13.01,2013-02-08 13:19:00,
2013-02-08 08:24:00,29.5,16.9,29.71,NW,318,3.1,4.9,59,0.00,,---,0.00,VWS V13.01,2013-02-08 13:24:00,
2013-02-08 08:29:00,29.7,16.7,29.71,WNW,296,4.9,8.3,58,0.00,,---,0.00,VWS V13.01,2013-02-08 13:29:00,
2013-02-08 08:34:00,29.5,16.1,29.71,WNW,288,3.1,5.8,57,0.00,,---,0.00,VWS V13.01,2013-02-08 13:34:00,
2013-02-08 08:39:00,29.7,17.1,29.71,NW,325,3.6,7.6,59,0.00,,---,0.00,VWS V13.01,2013-02-08 13:39:00,
2013-02-08 08:49:00,29.7,16.7,29.71,NW,312,3.6,8.1,58,0.00,,---,0.00,VWS V13.01,2013-02-08 13:49:00,
2013-02-08 08:54:00,29.8,16.9,29.71,NW,318,3.6,6.3,58,0.00,,---,0.00,VWS V13.01,2013-02-08 13:54:00,
2013-02-08 08:59:00,29.5,15.7,29.68,WNW,283,5.8,8.1,56,0.00,,---,0.00,VWS V13.01,2013-02-08 13:59:00,
2013-02-08 09:04:00,29.5,16.1,29.68,NW,314,7.2,8.7,57,0.00,,---,0.00,VWS V13.01,2013-02-08 14:04:00,
2013-02-08 09:15:00,30.0,16.6,29.71,NW,315,3.1,8.3,57,0.00,,---,0.00,VWS V13.01,2013-02-08 14:15:00,
2013-02-08 09:24:00,30.2,16.4,29.71,NW,324,5.8,8.7,56,0.00,,---,0.00,VWS V13.01,2013-02-08 14:24:00,
2013-02-08 09:29:00,30.0,16.2,29.68,NNW,348,5.8,9.2,56,0.00,,---,0.00,VWS V13.01,2013-02-08 14:29:00,
2013-02-08 09:34:00,30.2,16.8,29.68,NNW,336,5.4,8.1,57,0.00,,---,0.00,VWS V13.01,2013-02-08 14:34:00,
2013-02-08 09:39:00,30.0,16.2,29.68,North,353,2.7,10.5,56,0.00,,---,0.00,VWS V13.01,2013-02-08 14:39:00,
2013-02-08 09:44:00,30.4,16.6,29.68,WSW,249,5.4,8.3,56,0.00,,---,0.00,VWS V13.01,2013-02-08 14:44:00,
2013-02-08 09:49:00,30.2,16.4,29.68,NW,311,6.3,6.3,56,0.00,,---,0.00,VWS V13.01,2013-02-08 14:49:00,
2013-02-08 09:54:00,30.6,16.7,29.68,NNW,329,3.1,6.3,56,0.00,,---,0.00,VWS V13.01,2013-02-08 14:54:00,
2013-02-08 10:04:00,30.6,17.1,29.68,NNW,327,5.4,7.6,57,0.00,,---,0.00,VWS V13.01,2013-02-08 15:04:00,
2013-02-08 10:09:00,30.7,17.3,29.68,West,277,4.9,7.6,57,0.00,,---,0.00,VWS V13.01,2013-02-08 15:09:00,
2013-02-08 10:14:00,30.7,16.9,29.68,NW,314,3.1,8.7,56,0.00,,---,0.00,VWS V13.01,2013-02-08 15:14:00,
2013-02-08 10:19:00,31.1,16.8,29.68,WNW,283,0.0,7.6,55,0.00,,---,0.00,VWS V13.01,2013-02-08 15:19:00,
2013-02-08 10:24:00,31.1,16.4,29.68,NW,326,8.3,8.7,54,0.00,,---,0.00,VWS V13.01,2013-02-08 15:24:00,
2013-02-08 10:29:00,31.1,16.8,29.65,WNW,292,2.7,10.1,55,0.00,,---,0.00,VWS V13.01,2013-02-08 15:29:00,
2013-02-08 10:34:00,31.3,16.6,29.65,NW,306,3.1,8.3,54,0.00,,---,0.00,VWS V13.01,2013-02-08 15:34:00,
2013-02-08 10:39:00,31.1,16.4,29.65,West,281,3.6,8.7,54,0.00,,---,0.00,VWS V13.01,2013-02-08 15:39:00,
2013-02-08 10:44:00,31.3,17.0,29.65,NW,322,11.4,11.4,55,0.00,,---,0.00,VWS V13.01,2013-02-08 15:44:00,
2013-02-08 10:50:00,31.1,17.2,29.65,NNW,327,8.3,11.4,56,0.00,,---,0.00,VWS V13.01,2013-02-08 15:50:00,
2013-02-08 10:54:00,31.1,17.2,29.65,NNW,339,10.5,10.5,56,0.00,,---,0.00,VWS V13.01,2013-02-08 15:54:00,
2013-02-08 10:59:00,31.1,17.7,29.65,WNW,290,12.3,13.2,57,0.00,,---,0.00,VWS V13.01,2013-02-08 15:59:00,
2013-02-08 11:04:00,31.1,18.5,29.65,West,274,5.8,12.3,59,0.00,,---,0.00,VWS V13.01,2013-02-08 16:04:00,
2013-02-08 11:14:00,31.3,17.8,29.62,NW,318,10.1,10.1,57,0.00,,---,0.00,VWS V13.01,2013-02-08 16:14:00,
2013-02-08 11:19:00,31.5,18.0,29.62,NW,304,5.4,11.9,57,0.00,,---,0.00,VWS V13.01,2013-02-08 16:19:00,
2013-02-08 11:29:00,31.1,18.1,29.62,WNW,290,5.4,15.9,58,0.00,,---,0.00,VWS V13.01,2013-02-08 16:29:00,
2013-02-08 11:34:00,31.3,17.4,29.62,WNW,298,15.9,15.9,56,0.00,,---,0.00,VWS V13.01,2013-02-08 16:34:00,
2013-02-08 11:39:00,31.3,17.8,29.62,NW,318,11.0,15.9,57,0.00,,---,0.00,VWS V13.01,2013-02-08 16:39:00,
2013-02-08 11:44:00,31.3,17.8,29.59,NW,321,5.4,12.3,57,0.00,,---,0.00,VWS V13.01,2013-02-08 16:44:00,
2013-02-08 11:49:00,31.1,18.1,29.59,WNW,300,12.3,16.3,58,0.00,,---,0.00,VWS V13.01,2013-02-08 16:49:00,
2013-02-08 11:54:00,31.3,17.8,29.59,WNW,290,13.2,15.0,57,0.00,,---,0.00,VWS V13.01,2013-02-08 16:54:00,
2013-02-08 11:59:00,31.5,18.4,29.59,NW,315,12.3,13.2,58,0.00,,---,0.00,VWS V13.01,2013-02-08 16:59:00,
2013-02-08 12:04:00,31.3,17.4,29.59,NNW,339,12.8,12.8,56,0.00,,---,0.00,VWS V13.01,2013-02-08 17:04:00,
2013-02-08 12:09:00,31.3,18.2,29.59,West,279,5.8,13.6,58,0.00,,---,0.00,VWS V13.01,2013-02-08 17:09:00,
2013-02-08 12:14:00,31.3,18.2,29.56,NNW,334,4.0,11.9,58,0.00,,---,0.00,VWS V13.01,2013-02-08 17:14:00,
2013-02-08 12:19:00,31.5,18.4,29.56,WNW,292,4.9,13.2,58,0.00,,---,0.00,VWS V13.01,2013-02-08 17:19:00,
2013-02-08 12:24:00,31.6,19.0,29.56,WNW,287,4.0,10.5,59,0.00,,---,0.00,VWS V13.01,2013-02-08 17:24:00,
2013-02-08 12:29:00,31.3,18.6,29.56,NW,309,8.1,16.8,59,0.00,,---,0.00,VWS V13.01,2013-02-08 17:29:00,
2013-02-08 12:34:00,31.1,20.0,29.56,NNW,344,11.0,15.9,63,0.00,,---,0.00,VWS V13.01,2013-02-08 17:34:00,
2013-02-08 12:39:00,31.3,21.6,29.56,NW,309,6.7,12.3,67,0.00,,---,0.00,VWS V13.01,2013-02-08 17:39:00,
2013-02-08 12:44:00,31.3,22.3,29.56,WNW,300,8.3,8.7,69,0.00,,---,0.00,VWS V13.01,2013-02-08 17:44:00,
2013-02-08 12:49:00,31.1,21.1,29.56,WNW,283,8.3,17.4,66,0.00,,---,0.00,VWS V13.01,2013-02-08 17:49:00,
2013-02-08 12:54:00,31.5,22.5,29.56,WNW,301,5.4,8.3,69,0.00,,---,0.00,VWS V13.01,2013-02-08 17:54:00,
2013-02-08 13:00:00,31.3,21.3,29.53,WNW,284,11.0,12.3,66,0.00,,---,0.00,VWS V13.01,2013-02-08 18:00:00,
2013-02-08 13:04:00,31.5,22.1,29.53,North,350,7.6,13.2,68,0.00,,---,0.00,VWS V13.01,2013-02-08 18:04:00,
2013-02-08 13:14:00,31.3,23.3,29.50,NW,319,8.3,17.0,72,0.00,,---,0.00,VWS V13.01,2013-02-08 18:14:00,
2013-02-08 13:19:00,31.5,24.1,29.50,NW,307,5.8,13.2,74,0.00,,---,0.00,VWS V13.01,2013-02-08 18:19:00,
2013-02-08 13:24:00,31.3,23.6,29.50,WNW,293,11.9,13.2,73,0.00,,---,0.00,VWS V13.01,2013-02-08 18:24:00,
2013-02-08 13:29:00,31.6,24.6,29.50,WNW,298,4.0,11.9,75,0.00,,---,0.00,VWS V13.01,2013-02-08 18:29:00,
2013-02-08 13:34:00,31.3,23.3,29.50,WNW,288,8.7,13.6,72,0.00,,---,0.00,VWS V13.01,2013-02-08 18:34:00,
2013-02-08 13:44:00,31.6,24.3,29.47,WNW,286,3.6,16.8,74,0.00,,---,0.00,VWS V13.01,2013-02-08 18:44:00,
2013-02-08 13:49:00,31.5,23.5,29.47,WNW,289,12.8,15.4,72,0.00,,---,0.00,VWS V13.01,2013-02-08 18:49:00,
2013-02-08 13:54:00,31.6,24.0,29.47,North,350,5.8,15.0,73,0.00,,---,0.00,VWS V13.01,2013-02-08 18:54:00,
2013-02-08 13:59:00,31.6,23.7,29.47,NW,318,5.8,16.8,72,0.00,,---,0.00,VWS V13.01,2013-02-08 18:59:00,
2013-02-08 14:04:00,31.6,23.7,29.47,West,266,6.3,12.8,72,0.00,,---,0.00,VWS V13.01,2013-02-08 19:04:00,
2013-02-08 14:09:00,31.8,24.2,29.47,North,353,3.6,12.8,73,0.00,,---,0.00,VWS V13.01,2013-02-08 19:09:00,
2013-02-08 14:14:00,31.8,24.8,29.47,WNW,301,8.7,10.1,75,0.00,,---,0.00,VWS V13.01,2013-02-08 19:14:00,
2013-02-08 14:24:00,31.8,25.1,29.47,NW,325,5.8,12.8,76,0.00,,---,0.00,VWS V13.01,2013-02-08 19:24:00,
2013-02-08 14:29:00,31.8,25.4,29.44,NW,304,5.4,12.8,77,0.00,,---,0.00,VWS V13.01,2013-02-08 19:29:00,
2013-02-08 14:35:00,32.0,25.9,29.44,WNW,285,7.6,12.8,78,0.00,,---,0.00,VWS V13.01,2013-02-08 19:35:00,
2013-02-08 14:39:00,31.8,25.8,29.44,NNE,30,10.1,16.3,78,0.00,,---,0.00,VWS V13.01,2013-02-08 19:39:00,
2013-02-08 14:44:00,31.8,26.1,29.44,WNW,283,7.6,15.0,79,0.00,,---,0.00,VWS V13.01,2013-02-08 19:44:00,
2013-02-08 14:49:00,32.0,25.9,29.44,WNW,298,8.3,15.4,78,0.00,,---,0.00,VWS V13.01,2013-02-08 19:49:00,
2013-02-08 14:54:00,32.0,26.2,29.44,WNW,297,4.0,13.2,79,0.00,,---,0.00,VWS V13.01,2013-02-08 19:54:00,
2013-02-08 14:59:00,32.0,26.2,29.41,NW,322,6.3,12.8,79,0.00,,---,0.00,VWS V13.01,2013-02-08 19:59:00,
2013-02-08 15:04:00,32.0,26.2,29.41,WNW,302,6.3,14.5,79,0.00,,---,0.00,VWS V13.01,2013-02-08 20:04:00,
2013-02-08 15:09:00,32.2,26.4,29.41,NNW,339,8.3,15.0,79,0.00,,---,0.00,VWS V13.01,2013-02-08 20:09:00,
2013-02-08 15:14:00,32.2,26.4,29.38,NW,324,8.3,12.3,79,0.00,,---,0.00,VWS V13.01,2013-02-08 20:14:00,
2013-02-08 15:19:00,32.2,26.7,29.38,NW,319,10.1,16.8,80,0.00,,---,0.00,VWS V13.01,2013-02-08 20:19:00,
2013-02-08 15:24:00,32.2,26.4,29.38,WNW,300,11.0,14.1,79,0.00,,---,0.00,VWS V13.01,2013-02-08 20:24:00,
2013-02-08 15:29:00,32.2,26.4,29.38,West,264,7.6,17.4,79,0.00,,---,0.00,VWS V13.01,2013-02-08 20:29:00,
2013-02-08 15:34:00,32.4,26.9,29.38,NW,304,4.0,13.2,80,0.00,,---,0.00,VWS V13.01,2013-02-08 20:34:00,
2013-02-08 15:39:00,32.5,27.4,29.38,WSW,249,5.8,13.6,81,0.00,,---,0.00,VWS V13.01,2013-02-08 20:39:00,
2013-02-08 15:44:00,32.4,27.5,29.38,WNW,287,7.6,14.5,82,0.00,,---,0.00,VWS V13.01,2013-02-08 20:44:00,
2013-02-08 15:49:00,32.5,27.4,29.35,WNW,303,13.2,13.2,81,0.00,,---,0.00,VWS V13.01,2013-02-08 20:49:00,
2013-02-08 15:54:00,32.5,27.4,29.35,WNW,299,12.3,17.0,81,0.00,,---,0.00,VWS V13.01,2013-02-08 20:54:00,
2013-02-08 15:59:00,32.4,27.2,29.35,NNE,25,0.0,13.6,81,0.00,,---,0.00,VWS V13.01,2013-02-08 20:59:00,
2013-02-08 16:04:00,32.2,26.4,29.35,NW,315,8.7,16.3,79,0.00,,---,0.00,VWS V13.01,2013-02-08 21:04:00,
2013-02-08 16:09:00,32.2,26.1,29.35,WNW,295,13.6,14.5,78,0.00,,---,0.00,VWS V13.01,2013-02-08 21:09:00,
2013-02-08 16:14:00,32.2,26.7,29.35,NNW,346,5.4,13.6,80,0.00,,---,0.00,VWS V13.01,2013-02-08 21:14:00,
2013-02-08 16:19:00,32.0,26.2,29.35,WNW,300,10.5,14.5,79,0.00,,---,0.00,VWS V13.01,2013-02-08 21:19:00,
2013-02-08 16:24:00,31.6,25.6,29.35,WSW,257,12.8,12.8,78,0.00,,---,0.00,VWS V13.01,2013-02-08 21:24:00,
2013-02-08 16:29:00,31.6,25.6,29.32,NW,317,5.4,20.1,78,0.00,,---,0.00,VWS V13.01,2013-02-08 21:29:00,
2013-02-08 16:34:00,31.6,26.5,29.32,West,271,6.7,8.7,81,0.00,,---,0.00,VWS V13.01,2013-02-08 21:34:00,
2013-02-08 16:39:00,31.5,26.0,29.32,WSW,249,4.9,12.8,80,0.00,,---,0.00,VWS V13.01,2013-02-08 21:39:00,
2013-02-08 16:44:00,31.1,24.8,29.32,WNW,301,13.6,15.4,77,0.00,,---,0.00,VWS V13.01,2013-02-08 21:44:00,
2013-02-08 16:49:00,31.1,25.0,29.32,WNW,285,8.3,13.6,78,0.00,,---,0.00,VWS V13.01,2013-02-08 21:49:00,
2013-02-08 16:54:00,31.1,25.4,29.32,WNW,300,5.4,14.1,79,0.00,,---,0.00,VWS V13.01,2013-02-08 21:54:00,
2013-02-08 16:59:00,31.1,25.4,29.32,NW,305,13.2,15.4,79,0.00,,---,0.00,VWS V13.01,2013-02-08 21:59:00,
2013-02-08 17:04:00,30.9,24.3,29.32,West,280,4.0,16.3,76,0.00,,---,0.00,VWS V13.01,2013-02-08 22:04:00,
2013-02-08 17:09:00,30.7,24.1,29.32,WSW,258,8.3,14.1,76,0.00,,---,0.00,VWS V13.01,2013-02-08 22:09:00,
2013-02-08 17:14:00,30.7,24.7,29.29,SSW,212,14.5,15.0,78,0.00,,---,0.00,VWS V13.01,2013-02-08 22:14:00,
2013-02-08 17:19:00,30.7,25.0,29.29,NW,312,9.6,15.0,79,0.00,,---,0.00,VWS V13.01,2013-02-08 22:19:00,
2013-02-08 17:24:00,30.4,24.4,29.29,WNW,292,7.2,18.8,78,0.00,,---,0.00,VWS V13.01,2013-02-08 22:24:00,
2013-02-08 17:29:00,30.4,24.7,29.29,WNW,303,8.3,17.4,79,0.00,,---,0.00,VWS V13.01,2013-02-08 22:29:00,
2013-02-08 17:34:00,30.0,24.3,29.29,WNW,300,8.1,15.4,79,0.00,,---,0.00,VWS V13.01,2013-02-08 22:34:00,
2013-02-08 17:39:00,30.0,24.6,29.29,West,272,9.6,17.0,80,0.00,,---,0.00,VWS V13.01,2013-02-08 22:39:00,
2013-02-08 17:44:00,29.8,24.7,29.29,WNW,291,8.1,15.0,81,0.00,,---,0.00,VWS V13.01,2013-02-08 22:44:00,
2013-02-08 17:49:00,29.8,25.0,29.29,NNW,334,5.8,21.9,82,0.00,,---,0.00,VWS V13.01,2013-02-08 22:49:00,
2013-02-08 17:54:00,29.7,25.4,29.29,NNW,329,12.8,15.4,84,0.00,,---,0.00,VWS V13.01,2013-02-08 22:54:00,
2013-02-08 17:59:00,29.5,25.2,29.29,NNW,332,7.2,17.0,84,0.00,,---,0.00,VWS V13.01,2013-02-08 22:59:00,
2013-02-08 18:04:00,29.5,25.2,29.29,West,269,15.4,19.2,84,0.00,,---,0.00,VWS V13.01,2013-02-08 23:04:00,
2013-02-08 18:09:00,29.5,25.5,29.29,WNW,297,11.0,15.4,85,0.00,,---,0.00,VWS V13.01,2013-02-08 23:09:00,
2013-02-08 18:14:00,29.3,25.4,29.26,West,278,15.4,19.2,85,0.00,,---,0.00,VWS V13.01,2013-02-08 23:14:00,
2013-02-08 18:19:00,29.1,25.2,29.26,NNW,342,8.1,16.8,85,0.00,,---,0.00,VWS V13.01,2013-02-08 23:19:00,
2013-02-08 18:24:00,29.1,25.5,29.26,West,276,5.4,17.4,86,0.00,,---,0.00,VWS V13.01,2013-02-08 23:24:00,
2013-02-08 18:29:00,29.1,25.5,29.26,North,357,11.0,17.0,86,0.00,,---,0.00,VWS V13.01,2013-02-08 23:29:00,
2013-02-08 18:34:00,28.9,25.3,29.26,NW,318,13.2,16.8,86,0.00,,---,0.00,VWS V13.01,2013-02-08 23:34:00,
2013-02-08 18:39:00,29.1,25.7,29.26,WNW,286,4.0,15.0,87,0.00,,---,0.00,VWS V13.01,2013-02-08 23:39:00,
2013-02-08 18:44:00,28.9,25.3,29.23,WNW,289,15.4,18.3,86,0.00,,---,0.00,VWS V13.01,2013-02-08 23:44:00,
2013-02-08 18:49:00,28.9,25.3,29.23,NW,316,9.6,16.8,86,0.00,,---,0.00,VWS V13.01,2013-02-08 23:49:00,
2013-02-08 18:54:00,28.8,25.1,29.23,WNW,287,15.4,17.9,86,0.00,,---,0.00,VWS V13.01,2013-02-08 23:54:00,
2013-02-08 18:59:00,28.6,24.9,29.23,NNW,335,3.6,17.0,86,0.00,,---,0.00,VWS V13.01,2013-02-08 23:59:00,
2013-02-08 19:05:00,28.6,24.9,29.23,NW,310,7.6,11.9,86,0.00,,---,0.00,VWS V13.01,2013-02-09 00:05:00,
2013-02-08 19:09:00,28.2,24.6,29.23,South,191,5.8,15.0,86,0.00,,---,0.00,VWS V13.01,2013-02-09 00:09:00,
2013-02-08 19:14:00,28.4,24.5,29.23,WSW,254,10.5,17.4,85,0.00,,---,0.00,VWS V13.01,2013-02-09 00:14:00,
2013-02-08 19:19:00,27.9,24.0,29.23,West,278,12.8,18.8,85,0.00,,---,0.00,VWS V13.01,2013-02-09 00:19:00,
2013-02-08 19:24:00,27.9,23.7,29.23,SSW,195,3.1,21.9,84,0.00,,---,0.00,VWS V13.01,2013-02-09 00:24:00,
2013-02-08 19:29:00,27.9,23.7,29.21,West,264,29.8,29.8,84,0.00,,---,0.00,VWS V13.01,2013-02-09 00:29:00,
2013-02-08 19:34:00,27.7,23.2,29.21,West,277,10.1,29.8,83,0.00,,---,0.00,VWS V13.01,2013-02-09 00:34:00,
2013-02-08 19:39:00,27.9,23.7,29.21,NW,315,4.0,12.8,84,0.00,,---,0.00,VWS V13.01,2013-02-09 00:39:00,
2013-02-08 19:44:00,27.7,23.5,29.21,NW,318,16.3,17.0,84,0.00,,---,0.00,VWS V13.01,2013-02-09 00:44:00,
2013-02-08 19:54:00,27.9,24.0,29.21,WNW,284,15.0,16.3,85,0.00,,---,0.00,VWS V13.01,2013-02-09 00:54:00,
2013-02-08 19:59:00,27.7,23.5,29.18,West,276,14.5,16.3,84,0.00,,---,0.00,VWS V13.01,2013-02-09 00:59:00,
2013-02-08 20:09:00,27.7,23.5,29.18,WNW,283,11.0,19.2,84,0.00,,---,0.00,VWS V13.01,2013-02-09 01:09:00,
2013-02-08 20:14:00,27.5,23.6,29.18,WNW,285,10.5,22.4,85,0.00,,---,0.00,VWS V13.01,2013-02-09 01:14:00,
2013-02-08 20:19:00,27.7,23.8,29.18,West,266,14.1,14.1,85,0.00,,---,0.00,VWS V13.01,2013-02-09 01:19:00,
2013-02-08 20:24:00,27.9,24.0,29.18,WNW,301,6.3,19.7,85,0.00,,---,0.00,VWS V13.01,2013-02-09 01:24:00,
2013-02-08 20:29:00,27.9,24.0,29.18,East,95,3.1,21.9,85,0.00,,---,0.00,VWS V13.01,2013-02-09 01:29:00,
2013-02-08 20:34:00,27.9,24.0,29.18,NW,313,4.0,17.0,85,0.00,,---,0.00,VWS V13.01,2013-02-09 01:34:00,
2013-02-08 20:39:00,27.9,24.0,29.18,West,259,15.4,23.7,85,0.00,,---,0.00,VWS V13.01,2013-02-09 01:39:00,
2013-02-08 20:44:00,27.7,24.0,29.15,WSW,247,3.6,18.8,86,0.00,,---,0.00,VWS V13.01,2013-02-09 01:44:00,
2013-02-08 20:49:00,27.7,23.8,29.15,NNW,334,3.1,21.0,85,0.00,,---,0.00,VWS V13.01,2013-02-09 01:49:00,
2013-02-08 20:54:00,27.5,23.9,29.15,North,1,5.4,17.9,86,0.00,,---,0.00,VWS V13.01,2013-02-09 01:54:00,
2013-02-08 21:04:00,27.3,23.4,29.15,WNW,293,21.9,21.9,85,0.00,,---,0.00,VWS V13.01,2013-02-09 02:04:00,
2013-02-08 21:09:00,27.5,23.6,29.15,WNW,285,15.0,21.9,85,0.00,,---,0.00,VWS V13.01,2013-02-09 02:09:00,
2013-02-08 21:14:00,27.5,23.6,29.15,SSW,208,3.1,16.8,85,0.00,,---,0.00,VWS V13.01,2013-02-09 02:14:00,
2013-02-08 21:19:00,27.0,23.1,29.15,West,265,8.1,16.8,85,0.00,,---,0.00,VWS V13.01,2013-02-09 02:19:00,
2013-02-08 21:24:00,27.0,23.1,29.15,WNW,301,17.4,17.4,85,0.00,,---,0.00,VWS V13.01,2013-02-09 02:24:00,
2013-02-08 21:29:00,27.0,22.8,29.15,NW,305,11.4,19.2,84,0.00,,---,0.00,VWS V13.01,2013-02-09 02:29:00,
2013-02-08 21:34:00,26.8,22.6,29.15,West,273,8.1,22.8,84,0.00,,---,0.00,VWS V13.01,2013-02-09 02:34:00,
2013-02-08 21:39:00,26.6,22.4,29.15,WNW,294,12.8,25.7,84,0.00,,---,0.00,VWS V13.01,2013-02-09 02:39:00,
2013-02-08 21:44:00,26.6,22.4,29.15,West,276,12.8,27.1,84,0.00,,---,0.00,VWS V13.01,2013-02-09 02:44:00,
2013-02-08 21:54:00,26.8,22.6,29.15,WNW,284,8.1,12.8,84,0.00,,---,0.00,VWS V13.01,2013-02-09 02:54:00,
2013-02-08 21:59:00,26.8,22.6,29.15,West,279,3.6,15.4,84,0.00,,---,0.00,VWS V13.01,2013-02-09 02:59:00,
2013-02-08 22:04:00,27.0,22.8,29.15,WNW,288,8.3,13.2,84,0.00,,---,0.00,VWS V13.01,2013-02-09 03:04:00,
2013-02-08 22:09:00,26.8,22.6,29.15,NW,316,10.1,17.0,84,0.00,,---,0.00,VWS V13.01,2013-02-09 03:09:00,
2013-02-08 22:19:00,26.8,22.6,29.15,WNW,289,5.8,18.8,84,0.00,,---,0.00,VWS V13.01,2013-02-09 03:19:00,
2013-02-08 22:24:00,27.0,22.8,29.15,NW,315,25.5,25.5,84,0.00,,---,0.00,VWS V13.01,2013-02-09 03:24:00,
2013-02-08 22:29:00,27.3,23.1,29.18,NNW,335,12.3,25.5,84,0.00,,---,0.00,VWS V13.01,2013-02-09 03:29:00,
2013-02-08 22:35:00,27.5,23.6,29.18,WNW,298,5.4,17.0,85,0.00,,---,0.00,VWS V13.01,2013-02-09 03:35:00,
2013-02-08 22:44:00,27.5,23.6,29.18,West,268,21.5,21.5,85,0.00,,---,0.00,VWS V13.01,2013-02-09 03:44:00,
2013-02-08 22:49:00,27.0,22.8,29.18,WSW,237,8.3,21.5,84,0.00,,---,0.00,VWS V13.01,2013-02-09 03:49:00,
2013-02-08 22:54:00,26.4,22.2,29.18,WNW,296,12.8,16.8,84,0.00,,---,0.00,VWS V13.01,2013-02-09 03:54:00,
2013-02-08 23:05:00,25.7,21.0,29.21,NW,321,3.1,12.3,82,0.00,,---,0.00,VWS V13.01,2013-02-09 04:05:00,
2013-02-08 23:10:00,25.5,20.8,29.21,West,278,8.1,15.9,82,0.00,,---,0.00,VWS V13.01,2013-02-09 04:10:00,
2013-02-08 23:15:00,25.5,20.5,29.21,SSW,206,8.3,10.1,81,0.00,,---,0.00,VWS V13.01,2013-02-09 04:15:00,
2013-02-08 23:19:00,25.5,20.5,29.21,SSW,206,8.3,8.3,81,0.00,,---,0.00,VWS V13.01,2013-02-09 04:19:00,
2013-02-08 23:25:00,25.3,20.3,29.21,WNW,294,17.0,17.0,81,0.00,,---,0.00,VWS V13.01,2013-02-09 04:25:00,
2013-02-08 23:29:00,25.3,20.3,29.21,WNW,294,17.0,17.0,81,0.00,,---,0.00,VWS V13.01,2013-02-09 04:29:00,
2013-02-08 23:39:00,25.2,20.2,29.21,SSW,211,14.5,14.5,81,0.00,,---,0.00,VWS V13.01,2013-02-09 04:39:00,
2013-02-08 23:44:00,25.3,20.3,29.21,West,273,6.3,14.5,81,0.00,,---,0.00,VWS V13.01,2013-02-09 04:44:00,
2013-02-08 23:50:00,25.3,20.3,29.21,South,170,15.0,15.0,81,0.00,,---,0.00,VWS V13.01,2013-02-09 04:50:00,
2013-02-08 23:55:00,25.2,19.9,29.21,SSW,213,5.8,15.0,80,0.00,,---,0.00,VWS V13.01,2013-02-09 04:55:00,
2013-02-08 23:59:00,25.0,19.7,29.23,West,278,8.3,14.1,80,0.00,,---,0.00,VWS V13.01,2013-02-09 04:59:00,